This is the latest recevied weather packets stored in our database for station/object KI4BIY. If no packets are shown the sender has not sent any weather packets the latest 10 day(s).
| Time | Temp. | Humidity | Pressure | Rain* | Wind** | Luminosity | Snow |
|---|---|---|---|---|---|---|---|
| 1778208885 | 11.67° C | 82% | 1015.9 hPa | 0 mm | - | 0 W/m² | - |
| 1778208583 | 11.67° C | 81% | 1016 hPa | 0 mm | - | 0 W/m² | - |
| 1778208278 | 11.67° C | 82% | 1016 hPa | 0 mm | - | 0 W/m² | - |
| 1778207975 | 11.67° C | 81% | 1016 hPa | 0 mm | - | 0 W/m² | - |
| 1778207672 | 11.67° C | 86% | 1015.9 hPa | 0 mm | - | 0 W/m² | - |
| 1778207369 | 11.67° C | 86% | 1015.6 hPa | 0 mm | - | 0 W/m² | - |
| 1778207065 | 11.67° C | 84% | 1015.9 hPa | 0 mm | - | 0 W/m² | - |
| 1778206762 | 12.22° C | 86% | 1015.7 hPa | 0 mm | - | 0 W/m² | - |
| 1778206458 | 11.67° C | 83% | 1015.7 hPa | 0 mm | - | 0 W/m² | - |
| 1778206154 | 12.22° C | 86% | 1015.3 hPa | 0 mm | - | 0 W/m² | - |
| 1778205852 | 12.22° C | 86% | 1015.3 hPa | 0 mm | - | 0 W/m² | - |
| 1778205549 | 12.22° C | 84% | 1015.3 hPa | 0 mm | - | 0 W/m² | - |
| 1778205247 | 12.78° C | 84% | 1015.2 hPa | 0 mm | - | 0 W/m² | - |
| 1778204943 | 12.78° C | 84% | 1015.1 hPa | 0 mm | - | 0 W/m² | - |
| 1778204640 | 12.78° C | 84% | 1015.4 hPa | 0 mm | - | 0 W/m² | - |
| 1778204335 | 12.78° C | 83% | 1015.4 hPa | 0 mm | - | 0 W/m² | - |
| 1778204032 | 13.33° C | 84% | 1015.5 hPa | 0 mm | - | 0 W/m² | - |
| 1778203729 | 13.33° C | 84% | 1015.3 hPa | 0 mm | - | 0 W/m² | - |
| 1778203426 | 13.33° C | 81% | 1015.2 hPa | 0 mm | - | 0 W/m² | - |
| 1778203124 | 13.33° C | 80% | 1015.2 hPa | 0 mm | - | 0 W/m² | - |
| 1778202822 | 13.89° C | 78% | 1014.9 hPa | 0 mm | - | 0 W/m² | - |
| 1778202519 | 13.89° C | 77% | 1015 hPa | 0 mm | - | 0 W/m² | - |
| 1778202216 | 13.89° C | 79% | 1014.8 hPa | 0 mm | - | 0 W/m² | - |
| 1778201913 | 14.44° C | 78% | 1015 hPa | 0 mm | - | 0 W/m² | - |
| 1778201610 | 14.44° C | 73% | 1014.9 hPa | 0 mm | - | 0 W/m² | - |
* Rain latest hour (hover to see other rain measurements)
** Current wind speed in m/s (hover to see current wind gust speed)